This is the latest recevied weather packets stored in our database for station/object UR7D-12. If no packets are shown the sender has not sent any weather packets the latest 10 day(s).
| Time | Temp. | Humidity | Pressure | Rain* | Wind** | Luminosity | Snow |
|---|---|---|---|---|---|---|---|
| 1777813357 | 20° C | 40% | 993.9 hPa | 0 mm | - | - | - |
| 1777811855 | 18.89° C | 40% | 994.3 hPa | 0 mm | - | - | - |
| 1777809153 | 18.33° C | 41% | 994.6 hPa | 0 mm | - | - | - |
| 1777808252 | 18.33° C | 42% | 994.6 hPa | 0 mm | - | - | - |
| 1777806451 | 17.22° C | 43% | 995.1 hPa | 0 mm | - | - | - |
| 1777804649 | 17.22° C | 43% | 995.4 hPa | 0 mm | - | - | - |
| 1777804350 | 17.22° C | 45% | 995.4 hPa | 0 mm | - | - | - |
| 1777804047 | 16.67° C | 44% | 995.4 hPa | 0 mm | - | - | - |
| 1777802848 | 16.11° C | 47% | 995.9 hPa | 0 mm | - | - | - |
| 1777801347 | 15.56° C | 46% | 996.2 hPa | 0 mm | - | - | - |
| 1777800744 | 15.56° C | 46% | 996.3 hPa | 0 mm | - | - | - |
| 1777800443 | 15.56° C | 47% | 996.3 hPa | 0 mm | - | - | - |
| 1777799843 | 15° C | 47% | 996.4 hPa | 0 mm | - | - | - |
| 1777799243 | 15° C | 48% | 996.6 hPa | 0 mm | - | - | - |
| 1777798644 | 15° C | 47% | 996.7 hPa | 0 mm | - | - | - |
| 1777797742 | 14.44° C | 50% | 996.7 hPa | 0 mm | - | - | - |
| 1777797442 | 14.44° C | 49% | 996.7 hPa | 0 mm | - | - | - |
| 1777796844 | 14.44° C | 49% | 996.8 hPa | 0 mm | - | - | - |
| 1777796540 | 14.44° C | 50% | 996.8 hPa | 0 mm | - | - | - |
| 1777796240 | 13.89° C | 51% | 996.7 hPa | 0 mm | - | - | - |
| 1777795338 | 14.44° C | 50% | 997 hPa | 0 mm | - | - | - |
| 1777795039 | 14.44° C | 50% | 997 hPa | 0 mm | - | - | - |
| 1777793538 | 13.33° C | 52% | 997.2 hPa | 0 mm | - | - | - |
| 1777793240 | 13.33° C | 52% | 997.2 hPa | 0 mm | - | - | - |
| 1777792937 | 12.78° C | 51% | 997.2 hPa | 0 mm | - | - | - |
* Rain latest hour (hover to see other rain measurements)
** Current wind speed in m/s (hover to see current wind gust speed)